{"data":{"norad_id":56702,"intl_designator":"2023-067Q","name":"STARLINK-30117","alt_names":[],"object_type":"PAYLOAD","status":"ACTIVE","operator":null,"country":"US","launch_date":"2023-05-19","launch_site_code":"AFETR","launch_vehicle":null,"mission":null,"orbit_class":"UNKNOWN","rcs_meters":null,"size_class":null,"mass_kg":null,"dimensions":null,"purposes":["comms"],"wikipedia_slug":null,"has_3d_model":false,"image_url":null,"decayed_at":null,"tle_current":{"epoch":"2026-05-24T15:30:40.809024Z","epoch_age_seconds":101618,"freshness":"FRESH","line1":"1 56702U 23067Q   26144.64630566  .00000928  00000+0  43239-4 0  9994","line2":"2 56702  43.0018 209.0957 0001428 259.0033 101.0658 15.27581678167237","mean_motion":15.27581678,"eccentricity":0.0001428,"inclination_deg":43.0018,"raan_deg":209.0957,"arg_perigee_deg":259.0033,"mean_anomaly_deg":101.0658,"bstar":4.3239e-5,"rev_number":16723,"period_min":94.266645164619,"perigee_km":482.06429485158,"apogee_km":484.02384816561,"semimajor_km":6861.1810715086,"source":"CELESTRAK","updated_at":"2026-05-25T13:38:18.121583Z"}}}